Location: Newark
(35.4500°N, 118.9467°W)
Time: 11:33:43
(UTC+00:00)

Hubble Space Telescope - Pass Details

Date: 27 January 2020
Orbit: 536 x 540 km, 28.5° (Epoch: 26 February)

Event Time Altitude Azimuth Distance (km) Brightness Sun altitude
Rises 14:01:20 0° 208° (SSW) 2,660 4.2 -12.0°
Reaches altitude 10° 14:05:57 10° 161° (SSE) 1,774 3.9 -11.1°
Maximum altitude 14:06:13 10° 157° (SSE) 1,771 4.0 -11.0°
Drops below altitude 10° 14:06:30 10° 153° (SSE) 1,775 4.0 -11.0°
Sets 14:11:07 0° 106° (ESE) 2,670 6.7 -10.1°
